Location: Casilda
(33.0440°S, 61.1680°W)
Time: 22:10:02
(UTC-03:00)

ISS - Pass Details

Date: 25 January 2023
Orbit: 413 x 419 km, 51.6° (Epoch: 30 January)

Event Time Altitude Azimuth Distance (km) Brightness Sun altitude
Exits shadow 05:09:26 12° 247° (WSW) 1,400 -1.4 -13.9°
Maximum altitude 05:11:14 16° 212° (SSW) 1,181 -1.5 -13.6°
Drops below altitude 10° 05:13:28 10° 171° (S) 1,510 -0.3 -13.2°
Sets 05:16:09 0° 149° (SSE) 2,379 1.3 -12.8°
